User: anonymous   Login
Location: Bethera
(33.2010°N, 79.7880°W)
Time: 15:58:41
(UTC-04:00)
Language:

Cosmos 1833 Rocket - Orbit

View from above orbital plane
View from above orbital plane
View from above satellite
View from above satellite

Ground track
Ground track

The orbit data is extracted from the following two-line orbital elements,

1 17590U 87027B   15187.13552694 -.00000249  00000-0 -10079-3 0  9990
2 17590 071.0014 209.3246 0007090 297.6033 062.4370 14.16699619463275
Epoch (UTC): 06 July 2015 03:15:09
Eccentricity: 0.0007090
inclination: 71.0014°
perigee height: 831 km
apogee height: 841 km
right ascension of ascending node: 209.3246°
argument of perigee: 297.6033°
revolutions per day: 14.16699619
mean anomaly at epoch: 62.4370°
orbit number at epoch: 46327

The dashed part of the orbit path shows where the satellite is in the earth's shadow,  

DLR